Location: Strom
(41.0500°S, 175.9667°E)
Time: 09:55:06
(UTC+00:00)

Daily predictions for brighter satellites

Satellite Brightness Start Highest point End
(mag) Time Altitude Azimuth Time Altitude Azimuth Time Altitude Azimuth
USA 59 Rocket 3.8 14:02:23 22° ESE 14:02:23 22° ESE 14:06:46 10° SE
USA 59 Rocket 2.1 15:49:00 74° SSE 15:49:00 74° SSE 15:58:36 10° SE
Cosmos 1980 Rocket 4.2 16:19:58 19° SSE 16:19:58 19° SSE 16:21:31 10° SSE
ISS -0.5 16:37:23 14° E 16:37:23 14° E 16:38:10 10° E
Cosmos 2263 Rocket 2.7 16:40:49 52° NNE 16:40:49 52° NNE 16:45:02 10° NNE
SL-16 R/B 3.4 16:36:29 10° N 16:41:45 40° ENE 16:47:03 10° SE
NOSS 3-2 (C) 3.1 16:54:00 77° SSW 16:54:25 87° SE 16:59:41 10° NE
SL-16 R/B 4.1 16:49:03 10° S 16:51:07 21° S 16:51:07 21° S
Lacrosse 5 4.1 17:00:43 14° S 17:00:43 14° S 17:02:35 10° SSE
CZ-2D R/B 4.3 17:03:24 10° NNE 17:05:44 37° NE 17:05:44 37° NE
Cosmos 1934 Rocket 4.4 17:01:09 10° S 17:07:15 61° E 17:13:15 10° NNE
Cosmos 2360 Rocket 3.9 17:03:48 10° NNE 17:08:45 32° ENE 17:13:44 10° SE
Cosmos 1844 Rocket 4.1 17:05:16 11° S 17:10:23 36° ESE 17:15:35 10° NE
BREEZE M DEB (TANK) 3.3 17:14:28 51° SW 17:15:50 83° SSE 17:28:58 10° ENE
SL-08 R/B 4.4 17:10:34 10° SSW 17:16:52 69° W 17:23:13 10° N
USA 276 3.6 17:18:12 35° ESE 17:18:12 35° ESE 17:20:12 10° ESE
Cosmos 858 Rocket 4.4 17:16:17 53° SW 17:17:25 71° WNW 17:22:39 10° N
Cosmos 44 Rocket 3.9 17:19:13 39° SSW 17:19:13 39° SSW 17:22:39 10° SSE
Cosmos 1814 Rocket 4.2 17:14:35 10° NNW 17:19:56 76° ENE 17:25:21 10° SSE
Cosmos 2278 3.6 17:18:25 26° NW 17:21:39 71° WSW 17:27:24 10° SSE
Cosmos 1821 Rocket 4.3 17:25:10 41° W 17:25:27 41° W 17:31:17 10° NNW
Cosmos 2333 Rocket 3.5 17:23:54 10° N 17:29:18 42° ENE 17:34:45 10° SE
Cosmos 1437 Rocket 2.5 17:32:05 66° WNW 17:32:05 66° WNW 17:35:50 10° N
Cosmos 1605 Rocket 4.5 17:30:57 10° S 17:37:19 64° E 17:43:40 10° NNE
Helios 1B rocket 4.0 17:35:28 10° NE 17:39:00 33° ESE 17:42:35 10° S
USA 305 2.7 17:37:30 34° NW 17:39:04 74° NE 17:43:01 10° SE
USA 59 Rocket 2.8 17:35:38 27° WSW 17:39:44 35° SSW 17:49:09 10° SSE
Cosmos 1867 4.3 17:38:27 14° SSW 17:43:00 50° SE 17:48:13 10° NE
Cosmos 2322 Rocket 2.3 17:37:56 10° NNW 17:43:40 84° ENE 17:49:27 10° SSE
CZ-2C R/B 3.7 17:41:05 10° NE 17:44:30 44° ESE 17:48:01 10° S
BREEZE-M DEB (TANK) 4.2 17:42:17 10° NNW 17:44:41 30° NE 17:49:43 10° ESE
USA 234 3.2 17:40:53 10° SE 17:47:30 75° SW 17:54:04 10° WNW
Iridium 2 4.2 17:49:33 27° NNW 17:49:33 27° NNW 17:51:03 10° NNW
Nadezhda 3 Rocket 4.5 17:43:35 10° NW 17:49:13 35° WSW 17:54:54 10° S
USA 238 DEB 3.5 17:50:17 18° SW 17:55:15 67° WNW 18:01:18 10° NNE
USA 238 3.5 17:50:19 18° SW 17:55:19 67° WNW 18:01:22 10° NNE
Spot 4 Rocket 4.5 17:53:28 10° NNW 17:58:16 39° W 18:03:05 10° SSW
Cosmos 2058 3.0 17:54:53 10° S 17:59:02 74° E 18:03:07 10° NNE
Geosat 3.9 17:54:23 10° SSE 17:59:24 66° WSW 18:04:23 10° NW
Cosmos 1980 Rocket 4.0 18:01:46 13° SW 18:01:46 13° SW 18:03:25 10° SSW
JB-3 4.5 17:57:23 10° SSE 18:01:14 72° ENE 18:04:58 10° N
USA 307 2.5 18:00:03 15° NW 18:03:07 90° SE 18:07:06 10° SE
Cosmos 1606 3.5 18:01:15 10° N 18:04:45 50° E 18:08:20 10° SSE
Gblst 52 Del rocket 4.2 17:59:26 10° NW 18:05:31 84° SW 18:11:09 10° SE
ISS -3.5 18:10:15 23° W 18:12:03 50° SSW 18:15:23 10° SE
Cosmos 1892 Rocket 4.0 18:10:48 10° SSW 18:14:59 40° W 18:19:05 10° NNW
SMAP 3.4 18:12:48 10° N 18:17:15 43° W 18:21:46 10° SSW
Cosmos 1900 4.5 18:12:54 13° SW 18:17:18 57° WNW 18:22:15 10° NNE
Cosmos 1455 Rocket 3.7 18:13:13 10° NW 18:17:19 35° WSW 18:21:30 10° S
Cosmos 1544 3.2 18:16:12 10° S 18:19:01 53° E 18:21:47 10° NNE
ATLAS CENTAUR R/B 0.5 18:19:35 19° WNW 18:20:58 44° SW 18:22:52 10° SSE
Cosmos 2263 Rocket 4.0 18:22:35 11° W 18:22:35 11° W 18:23:57 10° WNW
Iridium 4 Rocket 3.2 18:19:25 10° N 18:23:50 87° W 18:28:44 10° S
Cosmos 158 Rocket 4.2 18:19:04 10° NNW 18:24:14 75° ENE 18:29:18 10° SSE
SL-16 R/B 3.0 18:20:57 10° WNW 18:25:55 30° SW 18:30:56 10° S
Cosmos 1758 Rocket 4.4 18:21:42 10° S 18:26:02 53° E 18:30:21 10° NNE
Cosmos 2333 4.2 18:23:21 10° NNW 18:29:09 80° WSW 18:35:00 10° SSE
CZ-4 R/B 4.4 18:29:51 10° NNE 18:33:56 88° WNW 18:38:06 10° SSW
COSMO-SKYMED 1 2.6 18:29:42 10° S 18:34:09 80° WSW 18:38:31 10° NNW
Cosmos 1125 Rocket 3.5 18:33:38 10° SSW 18:38:54 78° WNW 18:44:05 10° NNE
Cosmos 1461 3.8 18:35:22 10° SW 18:39:20 33° WNW 18:43:14 10° N
COSMOS 2428 4.2 18:35:32 10° N 18:40:55 44° ENE 18:46:22 10° SE
Cosmos 1844 3.9 18:35:37 10° SW 18:41:00 50° WNW 18:46:22 10° N
Cosmos 2100 Rocket 4.4 18:34:56 10° S 18:41:22 74° E 18:47:46 10° NNE
Cosmos 1727 Rocket 4.1 18:36:12 10° NNW 18:42:32 70° W 18:48:58 10° S
Timation 2 Rocket 4.2 18:37:29 10° SSW 18:44:09 75° WNW 18:50:59 10° NNE
Lacrosse 5 4.0 18:41:45 10° SSW 18:44:39 15° SSE 18:47:33 10° SE
Cosmos 2219 Rocket 2.2 18:40:13 10° NNW 18:45:55 79° WSW 18:51:41 10° SSE
USA 81 4.2 18:41:06 10° N 18:46:25 88° E 18:51:48 10° S
USA 276 3.4 18:49:05 10° WSW 18:51:41 23° SSW 18:54:15 10° SE
SOZ 4.5 18:48:56 10° WNW 18:52:00 62° SW 18:54:19 10° SE
Cosmos 2360 Rocket 2.7 18:47:25 10° NW 18:52:37 37° WSW 18:57:52 10° S
SL-08 R/B 4.0 18:49:28 10° SSE 18:54:06 61° ENE 18:58:41 10° N
Cosmos 1844 Rocket 3.4 18:49:05 10° SW 18:54:11 34° WNW 18:59:14 10° NNW
SeaSat 1 3.8 18:49:42 10° ENE 18:54:16 39° SE 18:58:51 10° S
CZ-4 R/B 3.8 18:51:30 10° ENE 18:54:48 24° ESE 18:58:06 10° SSE
Okean 1-7 Rocket 3.6 18:51:58 10° S 18:56:28 77° W 19:00:59 10° N
Cosmos 2173 Rocket 4.1 18:50:48 10° S 18:57:10 88° W 19:03:32 10° N
BREEZE-M TANK 4.4 18:47:02 10° WSW 19:00:58 47° NW 19:05:19 10° NNE
